Time,TemperatureF,DewpointF,PressureIn,WindDirection,WindDirectionDegrees,WindSpeedMPH,WindSpeedGustMPH,Humidity,HourlyPrecipIn,Conditions,Clouds,dailyrainin,SoftwareType,DateUTC
2013-04-17 00:02:00,28.2,17.2,31.44,SE,135,11.0,17.0,63,0.00,,,0.00,meteohub,2013-04-17 06:02:00,
2013-04-17 00:07:00,28.2,17.2,31.44,SE,135,11.0,17.0,63,0.00,,,0.00,meteohub,2013-04-17 06:07:00,
2013-04-17 00:12:00,27.7,17.1,31.44,SE,135,11.0,17.0,64,0.00,,,0.00,meteohub,2013-04-17 06:12:00,
2013-04-17 00:17:00,27.5,17.2,31.44,SE,135,12.0,14.0,65,0.00,,,0.00,meteohub,2013-04-17 06:17:00,
2013-04-17 00:22:00,27.3,17.1,31.45,ESE,113,7.0,18.0,65,0.00,,,0.00,meteohub,2013-04-17 06:22:00,
2013-04-17 00:27:00,27.1,17.2,31.44,East,90,8.0,18.0,66,0.00,,,0.00,meteohub,2013-04-17 06:27:00,
2013-04-17 00:32:00,27.1,17.2,31.44,SE,135,10.0,12.0,66,0.00,,,0.00,meteohub,2013-04-17 06:32:00,
2013-04-17 00:37:00,26.8,16.9,31.44,East,90,11.0,15.0,66,0.00,,,0.00,meteohub,2013-04-17 06:37:00,
2013-04-17 00:42:00,26.6,17.1,31.44,East,90,10.0,15.0,67,0.00,,,0.00,meteohub,2013-04-17 06:42:00,
2013-04-17 00:47:00,26.2,17.4,31.44,East,90,13.0,14.0,69,0.00,,,0.00,meteohub,2013-04-17 06:47:00,
2013-04-17 00:52:00,26.1,17.6,31.44,South,180,12.0,18.0,70,0.00,,,0.00,meteohub,2013-04-17 06:52:00,
2013-04-17 00:57:00,25.9,17.4,31.44,South,180,13.0,19.0,70,0.00,,,0.00,meteohub,2013-04-17 06:57:00,
2013-04-17 01:02:00,25.7,17.6,31.44,East,90,10.0,19.0,71,0.00,,,0.00,meteohub,2013-04-17 07:02:00,
2013-04-17 01:07:00,25.7,18.0,31.43,SE,135,12.0,19.0,72,0.00,,,0.00,meteohub,2013-04-17 07:07:00,
2013-04-17 01:12:00,25.5,17.8,31.44,SW,225,10.0,15.0,72,0.00,,,0.00,meteohub,2013-04-17 07:12:00,
2013-04-17 01:17:00,25.3,17.6,31.44,SE,135,12.0,15.0,72,0.00,,,0.00,meteohub,2013-04-17 07:17:00,
2013-04-17 01:22:00,25.0,17.6,31.44,SE,135,15.0,16.0,73,0.00,,,0.00,meteohub,2013-04-17 07:22:00,
2013-04-17 01:27:00,24.8,17.4,31.44,SE,135,11.0,16.0,73,0.00,,,0.00,meteohub,2013-04-17 07:27:00,
2013-04-17 01:32:00,24.8,17.8,31.44,SE,135,16.0,16.0,74,0.00,,,0.00,meteohub,2013-04-17 07:32:00,
2013-04-17 01:37:00,24.6,17.8,31.44,East,90,13.0,16.0,75,0.00,,,0.00,meteohub,2013-04-17 07:37:00,
2013-04-17 01:42:00,24.4,17.6,31.44,NE,45,12.0,16.0,75,0.00,,,0.00,meteohub,2013-04-17 07:42:00,
2013-04-17 01:47:00,24.3,17.8,31.44,SE,135,12.0,16.0,76,0.00,,,0.00,meteohub,2013-04-17 07:47:00,
2013-04-17 01:52:00,23.9,17.4,31.44,East,90,9.0,16.0,76,0.00,,,0.00,meteohub,2013-04-17 07:52:00,
2013-04-17 01:57:00,23.7,17.6,31.43,SE,135,17.0,17.0,77,0.00,,,0.00,meteohub,2013-04-17 07:57:00,
2013-04-17 02:02:00,23.5,17.4,31.44,South,180,14.0,17.0,77,0.00,,,0.00,meteohub,2013-04-17 08:02:00,
2013-04-17 02:07:00,23.5,17.4,31.43,South,180,14.0,17.0,77,0.00,,,0.00,meteohub,2013-04-17 08:07:00,
2013-04-17 02:12:00,23.4,17.8,31.44,ESE,113,10.0,17.0,79,0.00,,,0.00,meteohub,2013-04-17 08:12:00,
2013-04-17 02:17:00,23.2,18.0,31.43,SE,135,17.0,17.0,80,0.00,,,0.00,meteohub,2013-04-17 08:17:00,
2013-04-17 02:22:00,23.4,18.1,31.43,SE,135,7.0,14.0,80,0.00,,,0.00,meteohub,2013-04-17 08:22:00,
2013-04-17 02:27:00,23.2,18.1,31.43,SW,225,15.0,17.0,81,0.00,,,0.00,meteohub,2013-04-17 08:27:00,
2013-04-17 02:32:00,23.2,18.1,31.42,NE,45,11.0,18.0,81,0.00,,,0.00,meteohub,2013-04-17 08:32:00,
2013-04-17 02:37:00,23.2,18.1,31.43,South,180,10.0,18.0,81,0.00,,,0.00,meteohub,2013-04-17 08:37:00,
2013-04-17 02:42:00,23.2,18.1,31.42,SE,135,10.0,18.0,81,0.00,,,0.00,meteohub,2013-04-17 08:42:00,
2013-04-17 02:47:00,23.2,18.1,31.42,SE,135,10.0,18.0,81,0.00,,,0.00,meteohub,2013-04-17 08:47:00,
2013-04-17 02:52:00,23.0,18.3,31.43,SE,135,15.0,16.0,82,0.00,,,0.00,meteohub,2013-04-17 08:52:00,
2013-04-17 02:57:00,23.0,18.3,31.43,East,90,14.0,16.0,82,0.00,,,0.00,meteohub,2013-04-17 08:57:00,
2013-04-17 03:02:00,23.0,18.3,31.43,SE,135,12.0,15.0,82,0.00,,,0.00,meteohub,2013-04-17 09:02:00,
2013-04-17 03:07:00,23.0,18.3,31.43,SE,135,9.0,15.0,82,0.00,,,0.00,meteohub,2013-04-17 09:07:00,
2013-04-17 03:12:00,22.8,18.5,31.43,East,90,11.0,15.0,83,0.00,,,0.00,meteohub,2013-04-17 09:12:00,
2013-04-17 03:17:00,22.8,18.5,31.42,East,90,13.0,15.0,83,0.00,,,0.00,meteohub,2013-04-17 09:17:00,
2013-04-17 03:23:00,22.8,18.5,31.43,South,180,13.0,17.0,83,0.00,,,0.00,meteohub,2013-04-17 09:23:00,
2013-04-17 03:28:00,22.6,18.3,31.43,SE,135,8.0,17.0,83,0.00,,,0.00,meteohub,2013-04-17 09:28:00,
2013-04-17 03:34:00,22.6,18.3,31.42,East,90,11.0,13.0,83,0.00,,,0.00,meteohub,2013-04-17 09:34:00,
2013-04-17 03:39:00,22.6,18.3,31.42,WNW,293,5.0,13.0,83,0.00,,,0.00,meteohub,2013-04-17 09:39:00,
2013-04-17 03:45:00,22.5,18.1,31.42,ESE,113,9.0,13.0,83,0.00,,,0.00,meteohub,2013-04-17 09:45:00,
2013-04-17 03:50:00,22.3,18.0,31.42,East,90,8.0,15.0,83,0.00,,,0.00,meteohub,2013-04-17 09:50:00,
2013-04-17 03:56:00,22.3,18.0,31.42,SSE,158,8.0,15.0,83,0.00,,,0.00,meteohub,2013-04-17 09:56:00,
2013-04-17 04:02:00,22.3,18.0,31.42,South,180,4.0,15.0,83,0.00,,,0.00,meteohub,2013-04-17 10:02:00,
2013-04-17 04:07:00,22.3,18.0,31.42,South,180,4.0,11.0,83,0.00,,,0.00,meteohub,2013-04-17 10:07:00,
2013-04-17 04:12:00,22.1,17.8,31.43,SE,135,10.0,11.0,83,0.00,,,0.00,meteohub,2013-04-17 10:12:00,
2013-04-17 04:17:00,21.9,17.6,31.42,East,90,10.0,16.0,83,0.00,,,0.00,meteohub,2013-04-17 10:17:00,
2013-04-17 04:22:00,22.1,17.8,31.42,SE,135,11.0,16.0,83,0.00,,,0.00,meteohub,2013-04-17 10:22:00,
2013-04-17 04:28:00,22.1,18.0,31.42,SSW,203,10.0,16.0,84,0.00,,,0.00,meteohub,2013-04-17 10:28:00,
2013-04-17 04:33:00,22.3,18.1,31.42,SE,135,10.0,17.0,84,0.00,,,0.00,meteohub,2013-04-17 10:33:00,
2013-04-17 04:39:00,22.6,18.5,31.42,SE,135,12.0,17.0,84,0.00,,,0.00,meteohub,2013-04-17 10:39:00,
2013-04-17 04:44:00,23.4,18.7,31.42,SW,225,6.0,14.0,82,0.00,,,0.00,meteohub,2013-04-17 10:44:00,
2013-04-17 04:50:00,23.7,18.5,31.42,SE,135,8.0,14.0,80,0.00,,,0.00,meteohub,2013-04-17 10:50:00,
2013-04-17 04:55:00,23.5,18.0,31.41,SE,135,5.0,15.0,79,0.00,,,0.00,meteohub,2013-04-17 10:55:00,
2013-04-17 05:01:00,23.7,18.0,31.42,East,90,11.0,15.0,78,0.00,,,0.00,meteohub,2013-04-17 11:01:00,
2013-04-17 05:06:00,24.1,18.0,31.41,South,180,7.0,11.0,77,0.00,,,0.00,meteohub,2013-04-17 11:06:00,
2013-04-17 05:11:00,24.1,17.6,31.42,East,90,9.0,11.0,76,0.00,,,0.00,meteohub,2013-04-17 11:11:00,
2013-04-17 05:17:00,24.1,17.2,31.41,SE,135,8.0,11.0,75,0.00,,,0.00,meteohub,2013-04-17 11:17:00,
2013-04-17 05:22:00,24.1,17.2,31.41,East,90,7.0,11.0,75,0.00,,,0.00,meteohub,2013-04-17 11:22:00,
2013-04-17 05:27:00,24.1,17.2,31.41,SE,135,8.0,12.0,75,0.00,,,0.00,meteohub,2013-04-17 11:27:00,
2013-04-17 05:32:00,24.4,17.6,31.41,East,90,11.0,15.0,75,0.00,,,0.00,meteohub,2013-04-17 11:32:00,
2013-04-17 05:37:00,23.9,17.1,31.41,SE,135,10.0,15.0,75,0.00,,,0.00,meteohub,2013-04-17 11:37:00,
2013-04-17 05:42:00,23.5,16.7,31.41,SE,135,8.0,15.0,75,0.00,,,0.00,meteohub,2013-04-17 11:42:00,
2013-04-17 05:47:00,23.4,16.9,31.41,SE,135,11.0,15.0,76,0.00,,,0.00,meteohub,2013-04-17 11:47:00,
2013-04-17 05:52:00,23.0,16.5,31.41,SE,135,5.0,15.0,76,0.00,,,0.00,meteohub,2013-04-17 11:52:00,
2013-04-17 05:57:00,23.0,16.9,31.41,ENE,68,10.0,15.0,77,0.00,,,0.00,meteohub,2013-04-17 11:57:00,
2013-04-17 06:02:00,23.0,16.9,31.41,East,90,10.0,13.0,77,0.00,,,0.00,meteohub,2013-04-17 12:02:00,
2013-04-17 06:07:00,23.0,16.9,31.40,East,90,10.0,12.0,77,0.00,,,0.00,meteohub,2013-04-17 12:07:00,
2013-04-17 06:12:00,23.0,17.2,31.41,East,90,13.0,13.0,78,0.00,,,0.00,meteohub,2013-04-17 12:12:00,
2013-04-17 06:17:00,22.8,17.2,31.40,South,180,11.0,13.0,79,0.00,,,0.00,meteohub,2013-04-17 12:17:00,
2013-04-17 06:22:00,22.8,17.6,31.41,SE,135,9.0,15.0,80,0.00,,,0.00,meteohub,2013-04-17 12:22:00,
2013-04-17 06:27:00,22.8,17.6,31.41,SE,135,11.0,15.0,80,0.00,,,0.00,meteohub,2013-04-17 12:27:00,
2013-04-17 06:32:00,22.8,17.6,31.40,SE,135,6.0,17.0,80,0.00,,,0.00,meteohub,2013-04-17 12:32:00,
2013-04-17 06:37:00,23.0,17.8,31.40,SE,135,8.0,17.0,80,0.00,,,0.00,meteohub,2013-04-17 12:37:00,
2013-04-17 06:42:00,23.0,17.8,31.40,SE,135,15.0,17.0,80,0.00,,,0.00,meteohub,2013-04-17 12:42:00,
2013-04-17 06:47:00,23.0,17.8,31.40,East,90,9.0,15.0,80,0.00,,,0.00,meteohub,2013-04-17 12:47:00,
2013-04-17 06:53:00,23.0,18.0,31.40,NE,45,6.0,15.0,81,0.00,,,0.00,meteohub,2013-04-17 12:53:00,
2013-04-17 06:58:00,23.0,18.3,31.40,East,90,9.0,15.0,82,0.00,,,0.00,meteohub,2013-04-17 12:58:00,
2013-04-17 07:04:00,23.0,18.3,31.40,SE,135,8.0,13.0,82,0.00,,,0.00,meteohub,2013-04-17 13:04:00,
2013-04-17 07:10:00,23.2,18.5,31.40,SE,135,8.0,11.0,82,0.00,,,0.00,meteohub,2013-04-17 13:10:00,
2013-04-17 07:15:00,23.2,18.9,31.40,SE,135,7.0,11.0,83,0.00,,,0.00,meteohub,2013-04-17 13:15:00,
2013-04-17 07:20:00,23.4,19.0,31.40,South,180,12.0,12.0,83,0.00,,,0.00,meteohub,2013-04-17 13:20:00,
2013-04-17 07:26:00,23.7,19.4,31.39,East,90,4.0,12.0,83,0.00,,,0.00,meteohub,2013-04-17 13:26:00,
2013-04-17 07:32:00,23.9,19.6,31.39,South,180,8.0,12.0,83,0.00,,,0.00,meteohub,2013-04-17 13:32:00,
2013-04-17 07:37:00,24.1,19.8,31.40,South,180,8.0,12.0,83,0.00,,,0.00,meteohub,2013-04-17 13:37:00,
2013-04-17 07:42:00,24.4,19.9,31.39,East,90,8.0,11.0,83,0.00,,,0.00,meteohub,2013-04-17 13:42:00,
2013-04-17 07:48:00,24.4,19.9,31.39,East,90,8.0,12.0,83,0.00,,,0.00,meteohub,2013-04-17 13:48:00,
2013-04-17 07:53:00,24.6,19.9,31.39,SE,135,8.0,12.0,82,0.00,,,0.00,meteohub,2013-04-17 13:53:00,
2013-04-17 07:59:00,24.6,19.9,31.39,SW,225,6.0,12.0,82,0.00,,,0.00,meteohub,2013-04-17 13:59:00,
2013-04-17 08:04:00,24.6,19.9,31.39,South,180,5.0,11.0,82,0.00,,,0.00,meteohub,2013-04-17 14:04:00,
2013-04-17 08:09:00,24.6,19.4,31.39,SE,135,11.0,11.0,80,0.00,,,0.00,meteohub,2013-04-17 14:09:00,
2013-04-17 08:15:00,24.6,19.4,31.38,East,90,7.0,11.0,80,0.00,,,0.00,meteohub,2013-04-17 14:15:00,
2013-04-17 08:20:00,24.6,19.4,31.38,SW,225,11.0,11.0,80,0.00,,,0.00,meteohub,2013-04-17 14:20:00,
2013-04-17 08:26:00,24.4,18.9,31.39,SE,135,12.0,13.0,79,0.00,,,0.00,meteohub,2013-04-17 14:26:00,
2013-04-17 08:31:00,24.4,18.9,31.39,South,180,4.0,15.0,79,0.00,,,0.00,meteohub,2013-04-17 14:31:00,
2013-04-17 08:37:00,24.6,19.0,31.38,South,180,8.0,15.0,79,0.00,,,0.00,meteohub,2013-04-17 14:37:00,
2013-04-17 08:42:00,24.6,19.0,31.38,NE,45,8.0,15.0,79,0.00,,,0.00,meteohub,2013-04-17 14:42:00,
2013-04-17 08:47:00,24.6,19.0,31.38,East,90,12.0,12.0,79,0.00,,,0.00,meteohub,2013-04-17 14:47:00,
2013-04-17 08:52:00,24.8,18.9,31.38,SE,135,10.0,17.0,78,0.00,,,0.00,meteohub,2013-04-17 14:52:00,
2013-04-17 08:57:00,25.0,19.0,31.38,South,180,13.0,17.0,78,0.00,,,0.00,meteohub,2013-04-17 14:57:00,
2013-04-17 09:02:00,24.6,18.7,31.38,SE,135,10.0,17.0,78,0.00,,,0.00,meteohub,2013-04-17 15:02:00,
2013-04-17 09:07:00,24.4,18.5,31.37,East,90,9.0,15.0,78,0.00,,,0.00,meteohub,2013-04-17 15:07:00,
2013-04-17 09:12:00,24.3,18.7,31.37,East,90,9.0,13.0,79,0.00,,,0.00,meteohub,2013-04-17 15:12:00,
2013-04-17 09:18:00,23.9,18.3,31.37,East,90,12.0,12.0,79,0.00,,,0.00,meteohub,2013-04-17 15:18:00,
2013-04-17 09:24:00,23.9,18.3,31.37,East,90,15.0,15.0,79,0.00,,,0.00,meteohub,2013-04-17 15:24:00,
2013-04-17 09:29:00,23.9,18.7,31.38,East,90,13.0,17.0,80,0.00,,,0.00,meteohub,2013-04-17 15:29:00,
2013-04-17 09:35:00,23.7,18.5,31.38,NW,315,12.0,17.0,80,0.00,,,0.00,meteohub,2013-04-17 15:35:00,
2013-04-17 09:41:00,23.5,18.5,31.38,ESE,113,10.0,17.0,81,0.00,,,0.00,meteohub,2013-04-17 15:41:00,
2013-04-17 09:46:00,24.3,19.6,31.37,East,90,11.0,15.0,82,0.00,,,0.00,meteohub,2013-04-17 15:46:00,
2013-04-17 09:51:00,26.8,21.7,31.37,East,90,8.0,15.0,81,0.00,,,0.00,meteohub,2013-04-17 15:51:00,
2013-04-17 09:57:00,28.8,25.2,31.37,East,90,15.0,15.0,86,0.00,,,0.00,meteohub,2013-04-17 15:57:00,
2013-04-17 10:02:00,29.3,25.3,31.38,East,90,11.0,17.0,85,0.00,,,0.00,meteohub,2013-04-17 16:02:00,
2013-04-17 10:07:00,29.3,25.3,31.38,East,90,11.0,17.0,85,0.00,,,0.00,meteohub,2013-04-17 16:07:00,
2013-04-17 10:12:00,29.7,23.9,31.38,East,90,15.0,17.0,79,0.00,,,0.00,meteohub,2013-04-17 16:12:00,
2013-04-17 10:17:00,30.0,24.1,31.37,SE,135,12.0,19.0,78,0.00,,,0.00,meteohub,2013-04-17 16:17:00,
2013-04-17 10:22:00,28.6,21.9,31.38,SE,135,6.0,19.0,76,0.00,,,0.00,meteohub,2013-04-17 16:22:00,
2013-04-17 10:27:00,27.3,19.2,31.37,NE,45,9.0,19.0,71,0.00,,,0.00,meteohub,2013-04-17 16:27:00,
2013-04-17 10:32:00,26.6,18.9,31.37,NE,45,9.0,13.0,72,0.00,,,0.00,meteohub,2013-04-17 16:32:00,
2013-04-17 10:37:00,26.6,19.0,31.37,SE,135,6.0,13.0,73,0.00,,,0.00,meteohub,2013-04-17 16:37:00,
2013-04-17 10:42:00,26.8,19.2,31.38,SE,135,8.0,13.0,73,0.00,,,0.00,meteohub,2013-04-17 16:42:00,
2013-04-17 10:47:00,27.7,20.5,31.37,NE,45,7.0,14.0,74,0.00,,,0.00,meteohub,2013-04-17 16:47:00,
2013-04-17 10:52:00,28.9,23.0,31.37,East,90,6.0,14.0,78,0.00,,,0.00,meteohub,2013-04-17 16:52:00,
2013-04-17 10:57:00,29.3,22.6,31.36,SE,135,5.0,14.0,76,0.00,,,0.00,meteohub,2013-04-17 16:57:00,
2013-04-17 11:03:00,28.9,22.1,31.37,West,270,8.0,12.0,75,0.00,,,0.00,meteohub,2013-04-17 17:03:00,
2013-04-17 11:08:00,27.9,19.8,31.38,SE,135,10.0,12.0,71,0.00,,,0.00,meteohub,2013-04-17 17:08:00,
2013-04-17 11:14:00,27.0,18.9,31.38,South,180,8.0,13.0,71,0.00,,,0.00,meteohub,2013-04-17 17:14:00,
2013-04-17 11:19:00,27.0,19.2,31.38,SE,135,11.0,13.0,72,0.00,,,0.00,meteohub,2013-04-17 17:19:00,
2013-04-17 11:25:00,27.1,19.6,31.38,South,180,7.0,13.0,73,0.00,,,0.00,meteohub,2013-04-17 17:25:00,
2013-04-17 11:30:00,27.5,19.9,31.38,East,90,7.0,11.0,73,0.00,,,0.00,meteohub,2013-04-17 17:30:00,
2013-04-17 11:35:00,28.0,20.8,31.37,NE,45,5.0,11.0,74,0.00,,,0.00,meteohub,2013-04-17 17:35:00,
2013-04-17 11:40:00,29.3,23.5,31.37,SE,135,6.0,8.0,79,0.00,,,0.00,meteohub,2013-04-17 17:40:00,
2013-04-17 11:46:00,32.7,27.0,31.36,SE,135,8.0,8.0,79,0.00,,,0.00,meteohub,2013-04-17 17:46:00,
2013-04-17 11:51:00,35.1,27.7,31.37,South,180,10.0,10.0,74,0.00,,,0.00,meteohub,2013-04-17 17:51:00,
2013-04-17 11:57:00,34.2,23.2,31.37,East,90,7.0,10.0,64,0.00,,,0.00,meteohub,2013-04-17 17:57:00,
2013-04-17 12:02:00,32.9,21.7,31.37,SE,135,4.0,11.0,63,0.00,,,0.00,meteohub,2013-04-17 18:02:00,
2013-04-17 12:07:00,32.9,21.7,31.37,SE,135,4.0,11.0,63,0.00,,,0.00,meteohub,2013-04-17 18:07:00,
2013-04-17 12:12:00,30.2,19.6,31.37,SSE,158,4.0,11.0,64,0.00,,,0.00,meteohub,2013-04-17 18:12:00,
2013-04-17 12:17:00,29.5,19.6,31.38,SE,135,8.0,8.0,66,0.00,,,0.00,meteohub,2013-04-17 18:17:00,
2013-04-17 12:22:00,29.8,20.7,31.37,East,90,4.0,11.0,68,0.00,,,0.00,meteohub,2013-04-17 18:22:00,
2013-04-17 12:28:00,30.9,21.2,31.37,NE,45,4.0,11.0,67,0.00,,,0.00,meteohub,2013-04-17 18:28:00,
2013-04-17 12:33:00,31.6,20.8,31.36,NE,45,4.0,9.0,64,0.00,,,0.00,meteohub,2013-04-17 18:33:00,
2013-04-17 12:39:00,33.1,21.9,31.37,SE,135,2.0,9.0,63,0.00,,,0.00,meteohub,2013-04-17 18:39:00,
2013-04-17 12:44:00,36.9,23.5,31.37,NE,45,4.0,9.0,58,0.00,,,0.00,meteohub,2013-04-17 18:44:00,
2013-04-17 12:50:00,39.6,23.4,31.37,SE,135,10.0,10.0,52,0.00,,,0.00,meteohub,2013-04-17 18:50:00,
2013-04-17 12:55:00,36.9,17.1,31.37,SE,135,10.0,10.0,44,0.00,,,0.00,meteohub,2013-04-17 18:55:00,
2013-04-17 13:01:00,34.2,18.3,31.37,East,90,4.0,12.0,52,0.00,,,0.00,meteohub,2013-04-17 19:01:00,
2013-04-17 13:06:00,33.3,18.5,31.37,NE,45,4.0,12.0,54,0.00,,,0.00,meteohub,2013-04-17 19:06:00,
2013-04-17 13:12:00,32.9,18.5,31.36,SW,225,2.0,11.0,55,0.00,,,0.00,meteohub,2013-04-17 19:12:00,
2013-04-17 13:17:00,32.9,17.2,31.36,East,90,9.0,9.0,52,0.00,,,0.00,meteohub,2013-04-17 19:17:00,
2013-04-17 13:22:00,32.4,14.4,31.36,SSE,158,5.0,16.0,47,0.00,,,0.00,meteohub,2013-04-17 19:22:00,
2013-04-17 13:27:00,32.4,14.9,31.36,East,90,4.0,16.0,48,0.00,,,0.00,meteohub,2013-04-17 19:27:00,
2013-04-17 13:32:00,32.2,14.7,31.37,East,90,17.0,17.0,48,0.00,,,0.00,meteohub,2013-04-17 19:32:00,
2013-04-17 13:38:00,31.3,13.8,31.37,South,180,10.0,17.0,48,0.00,,,0.00,meteohub,2013-04-17 19:38:00,
2013-04-17 13:43:00,30.4,12.6,31.38,SE,135,6.0,17.0,47,0.00,,,0.00,meteohub,2013-04-17 19:43:00,
2013-04-17 13:48:00,30.2,12.9,31.39,East,90,11.0,17.0,48,0.00,,,0.00,meteohub,2013-04-17 19:48:00,
2013-04-17 13:53:00,29.3,14.4,31.39,SE,135,7.0,13.0,53,0.00,,,0.00,meteohub,2013-04-17 19:53:00,
2013-04-17 13:58:00,28.8,15.1,31.39,West,270,7.0,13.0,56,0.00,,,0.00,meteohub,2013-04-17 19:58:00,
2013-04-17 14:04:00,28.6,15.3,31.39,East,90,6.0,13.0,57,0.00,,,0.00,meteohub,2013-04-17 20:04:00,
2013-04-17 14:09:00,30.2,18.7,31.40,NW,315,3.0,11.0,62,0.00,,,0.00,meteohub,2013-04-17 20:09:00,
2013-04-17 14:15:00,32.0,20.1,31.40,East,90,5.0,11.0,61,0.00,,,0.00,meteohub,2013-04-17 20:15:00,
2013-04-17 14:21:00,32.0,19.2,31.40,West,270,2.0,7.0,59,0.00,,,0.00,meteohub,2013-04-17 20:21:00,
2013-04-17 14:26:00,30.2,16.9,31.41,SW,225,4.0,7.0,57,0.00,,,0.00,meteohub,2013-04-17 20:26:00,
2013-04-17 14:32:00,28.9,16.3,31.40,North,0,4.0,7.0,59,0.00,,,0.00,meteohub,2013-04-17 20:32:00,
2013-04-17 14:37:00,28.2,14.9,31.41,North,0,5.0,8.0,57,0.00,,,0.00,meteohub,2013-04-17 20:37:00,
2013-04-17 14:42:00,27.3,15.3,31.41,NE,45,4.0,8.0,60,0.00,,,0.00,meteohub,2013-04-17 20:42:00,
2013-04-17 14:47:00,27.1,15.4,31.41,ESE,113,6.0,8.0,61,0.00,,,0.00,meteohub,2013-04-17 20:47:00,
2013-04-17 14:52:00,26.8,15.1,31.41,North,0,4.0,8.0,61,0.00,,,0.00,meteohub,2013-04-17 20:52:00,
2013-04-17 14:57:00,26.6,14.9,31.42,SE,135,2.0,7.0,61,0.00,,,0.00,meteohub,2013-04-17 20:57:00,
2013-04-17 15:02:00,26.1,14.9,31.42,ESE,113,7.0,7.0,62,0.00,,,0.00,meteohub,2013-04-17 21:02:00,
2013-04-17 15:07:00,25.7,14.5,31.42,East,90,2.0,7.0,62,0.00,,,0.00,meteohub,2013-04-17 21:07:00,
2013-04-17 15:12:00,26.2,15.8,31.42,NE,45,6.0,7.0,64,0.00,,,0.00,meteohub,2013-04-17 21:12:00,
2013-04-17 15:18:00,27.0,16.3,31.42,East,90,4.0,7.0,64,0.00,,,0.00,meteohub,2013-04-17 21:18:00,
2013-04-17 15:23:00,27.5,16.5,31.43,East,90,4.0,6.0,63,0.00,,,0.00,meteohub,2013-04-17 21:23:00,
2013-04-17 15:29:00,27.3,15.6,31.43,East,90,4.0,6.0,61,0.00,,,0.00,meteohub,2013-04-17 21:29:00,
2013-04-17 15:34:00,27.3,15.3,31.43,East,90,4.0,6.0,60,0.00,,,0.00,meteohub,2013-04-17 21:34:00,
2013-04-17 15:40:00,27.5,15.4,31.42,NNE,23,5.0,6.0,60,0.00,,,0.00,meteohub,2013-04-17 21:40:00,
2013-04-17 15:45:00,27.1,13.5,31.42,NE,45,4.0,9.0,56,0.00,,,0.00,meteohub,2013-04-17 21:45:00,
2013-04-17 15:51:00,27.5,13.8,31.42,North,0,4.0,9.0,56,0.00,,,0.00,meteohub,2013-04-17 21:51:00,
2013-04-17 15:56:00,28.0,14.0,31.42,East,90,4.0,9.0,55,0.00,,,0.00,meteohub,2013-04-17 21:56:00,
2013-04-17 16:02:00,28.0,13.1,31.42,North,0,8.0,8.0,53,0.00,,,0.00,meteohub,2013-04-17 22:02:00,
2013-04-17 16:07:00,28.0,13.1,31.42,North,0,8.0,8.0,53,0.00,,,0.00,meteohub,2013-04-17 22:07:00,
2013-04-17 16:12:00,28.0,11.8,31.42,East,90,4.0,8.0,50,0.00,,,0.00,meteohub,2013-04-17 22:12:00,
2013-04-17 16:17:00,28.6,12.7,31.42,North,0,5.0,8.0,51,0.00,,,0.00,meteohub,2013-04-17 22:17:00,
2013-04-17 16:22:00,29.1,12.7,31.42,East,90,6.0,8.0,50,0.00,,,0.00,meteohub,2013-04-17 22:22:00,
2013-04-17 16:27:00,28.9,12.6,31.42,North,0,2.0,8.0,50,0.00,,,0.00,meteohub,2013-04-17 22:27:00,
2013-04-17 16:32:00,29.3,12.9,31.43,North,0,7.0,7.0,50,0.00,,,0.00,meteohub,2013-04-17 22:32:00,
2013-04-17 16:37:00,28.8,12.0,31.43,NW,315,7.0,7.0,49,0.00,,,0.00,meteohub,2013-04-17 22:37:00,
2013-04-17 16:42:00,28.9,12.6,31.42,North,0,6.0,8.0,50,0.00,,,0.00,meteohub,2013-04-17 22:42:00,
2013-04-17 16:47:00,28.9,12.6,31.43,North,0,4.0,8.0,50,0.00,,,0.00,meteohub,2013-04-17 22:47:00,
2013-04-17 16:53:00,28.4,12.2,31.43,North,0,8.0,8.0,50,0.00,,,0.00,meteohub,2013-04-17 22:53:00,
2013-04-17 16:58:00,27.5,9.9,31.43,NE,45,4.0,8.0,47,0.00,,,0.00,meteohub,2013-04-17 22:58:00,
2013-04-17 17:04:00,27.0,9.9,31.43,West,270,2.0,8.0,48,0.00,,,0.00,meteohub,2013-04-17 23:04:00,
2013-04-17 17:09:00,26.8,9.7,31.43,NE,45,5.0,8.0,48,0.00,,,0.00,meteohub,2013-04-17 23:09:00,
2013-04-17 17:15:00,26.6,9.5,31.44,West,270,5.0,5.0,48,0.00,,,0.00,meteohub,2013-04-17 23:15:00,
2013-04-17 17:20:00,26.2,10.6,31.44,South,180,4.0,5.0,51,0.00,,,0.00,meteohub,2013-04-17 23:20:00,
2013-04-17 17:26:00,25.3,10.9,31.44,South,180,2.0,6.0,54,0.00,,,0.00,meteohub,2013-04-17 23:26:00,
2013-04-17 17:31:00,24.8,11.3,31.45,South,180,4.0,6.0,56,0.00,,,0.00,meteohub,2013-04-17 23:31:00,
2013-04-17 17:37:00,24.8,11.7,31.44,East,90,4.0,8.0,57,0.00,,,0.00,meteohub,2013-04-17 23:37:00,
2013-04-17 17:42:00,25.3,12.2,31.45,SW,225,4.0,8.0,57,0.00,,,0.00,meteohub,2013-04-17 23:42:00,
2013-04-17 17:47:00,25.7,11.3,31.44,ESE,113,4.0,6.0,54,0.00,,,0.00,meteohub,2013-04-17 23:47:00,
2013-04-17 17:53:00,26.2,11.8,31.45,SSE,158,6.0,8.0,54,0.00,,,0.00,meteohub,2013-04-17 23:53:00,
2013-04-17 17:59:00,26.1,11.7,31.45,SE,135,3.0,8.0,54,0.00,,,0.00,meteohub,2013-04-17 23:59:00,
2013-04-17 18:04:00,26.1,11.7,31.44,SE,135,4.0,7.0,54,0.00,,,0.00,meteohub,2013-04-18 00:04:00,
2013-04-17 18:10:00,26.8,11.5,31.44,NE,45,4.0,6.0,52,0.00,,,0.00,meteohub,2013-04-18 00:10:00,
2013-04-17 18:15:00,27.0,11.7,31.44,East,90,5.0,8.0,52,0.00,,,0.00,meteohub,2013-04-18 00:15:00,
2013-04-17 18:21:00,26.8,11.1,31.44,NE,45,4.0,8.0,51,0.00,,,0.00,meteohub,2013-04-18 00:21:00,
2013-04-17 18:26:00,26.8,11.1,31.45,NE,45,2.0,8.0,51,0.00,,,0.00,meteohub,2013-04-18 00:26:00,
2013-04-17 18:32:00,27.0,10.8,31.45,NE,45,7.0,7.0,50,0.00,,,0.00,meteohub,2013-04-18 00:32:00,
2013-04-17 18:37:00,26.4,9.3,31.45,NNE,23,3.0,8.0,48,0.00,,,0.00,meteohub,2013-04-18 00:37:00,
2013-04-17 18:42:00,25.9,8.4,31.44,East,90,5.0,8.0,47,0.00,,,0.00,meteohub,2013-04-18 00:42:00,
2013-04-17 18:47:00,25.5,8.1,31.44,North,0,5.0,8.0,47,0.00,,,0.00,meteohub,2013-04-18 00:47:00,
2013-04-17 18:52:00,24.8,7.0,31.44,East,90,3.0,8.0,46,0.00,,,0.00,meteohub,2013-04-18 00:52:00,
2013-04-17 18:57:00,24.4,7.5,31.45,North,0,7.0,9.0,48,0.00,,,0.00,meteohub,2013-04-18 00:57:00,
2013-04-17 19:03:00,23.7,7.0,31.44,NW,315,8.0,10.0,48,0.00,,,0.00,meteohub,2013-04-18 01:03:00,
2013-04-17 19:08:00,23.0,6.6,31.45,North,0,8.0,10.0,49,0.00,,,0.00,meteohub,2013-04-18 01:08:00,
2013-04-17 19:14:00,22.3,6.4,31.45,South,180,7.0,10.0,50,0.00,,,0.00,meteohub,2013-04-18 01:14:00,
2013-04-17 19:20:00,21.7,6.4,31.45,NW,315,4.0,9.0,51,0.00,,,0.00,meteohub,2013-04-18 01:20:00,
2013-04-17 19:25:00,21.2,5.9,31.46,West,270,4.0,9.0,51,0.00,,,0.00,meteohub,2013-04-18 01:25:00,
2013-04-17 19:30:00,21.0,6.6,31.46,NW,315,4.0,8.0,53,0.00,,,0.00,meteohub,2013-04-18 01:30:00,
2013-04-17 19:36:00,20.7,5.9,31.46,East,90,3.0,8.0,52,0.00,,,0.00,meteohub,2013-04-18 01:36:00,
2013-04-17 19:42:00,20.7,5.9,31.46,NW,315,4.0,7.0,52,0.00,,,0.00,meteohub,2013-04-18 01:42:00,
2013-04-17 19:47:00,20.5,5.7,31.47,SW,225,2.0,7.0,52,0.00,,,0.00,meteohub,2013-04-18 01:47:00,
2013-04-17 19:52:00,20.3,5.5,31.47,NE,45,3.0,7.0,52,0.00,,,0.00,meteohub,2013-04-18 01:52:00,
2013-04-17 19:58:00,20.1,5.4,31.47,NW,315,2.0,7.0,52,0.00,,,0.00,meteohub,2013-04-18 01:58:00,
2013-04-17 20:03:00,20.1,5.4,31.47,NE,45,3.0,6.0,52,0.00,,,0.00,meteohub,2013-04-18 02:03:00,
2013-04-17 20:09:00,19.8,5.4,31.47,NW,315,5.0,6.0,53,0.00,,,0.00,meteohub,2013-04-18 02:09:00,
2013-04-17 20:14:00,19.4,5.0,31.47,North,0,3.0,4.0,53,0.00,,,0.00,meteohub,2013-04-18 02:14:00,
2013-04-17 20:19:00,19.2,3.6,31.47,North,0,4.0,5.0,50,0.00,,,0.00,meteohub,2013-04-18 02:19:00,
2013-04-17 20:25:00,19.0,3.4,31.47,North,0,4.0,8.0,50,0.00,,,0.00,meteohub,2013-04-18 02:25:00,
2013-04-17 20:30:00,18.9,3.7,31.47,SE,135,2.0,8.0,51,0.00,,,0.00,meteohub,2013-04-18 02:30:00,
2013-04-17 20:35:00,18.7,3.6,31.48,East,90,2.0,7.0,51,0.00,,,0.00,meteohub,2013-04-18 02:35:00,
2013-04-17 20:41:00,18.5,3.4,31.48,NW,315,5.0,7.0,51,0.00,,,0.00,meteohub,2013-04-18 02:41:00,
2013-04-17 20:46:00,18.3,3.2,31.48,NW,315,2.0,8.0,51,0.00,,,0.00,meteohub,2013-04-18 02:46:00,
2013-04-17 20:52:00,18.1,3.0,31.48,South,180,4.0,8.0,51,0.00,,,0.00,meteohub,2013-04-18 02:52:00,
2013-04-17 20:57:00,17.8,2.7,31.49,SW,225,2.0,8.0,51,0.00,,,0.00,meteohub,2013-04-18 02:57:00,
2013-04-17 21:02:00,17.6,1.8,31.49,North,0,4.0,8.0,49,0.00,,,0.00,meteohub,2013-04-18 03:02:00,
2013-04-17 21:08:00,17.2,1.8,31.49,NW,315,4.0,8.0,50,0.00,,,0.00,meteohub,2013-04-18 03:08:00,
2013-04-17 21:14:00,16.9,1.0,31.49,North,0,4.0,8.0,49,0.00,,,0.00,meteohub,2013-04-18 03:14:00,
2013-04-17 21:19:00,16.7,0.9,31.49,NW,315,4.0,8.0,49,0.00,,,0.00,meteohub,2013-04-18 03:19:00,
2013-04-17 21:25:00,16.5,0.7,31.49,South,180,5.0,8.0,49,0.00,,,0.00,meteohub,2013-04-18 03:25:00,
2013-04-17 21:31:00,16.5,0.7,31.50,West,270,4.0,8.0,49,0.00,,,0.00,meteohub,2013-04-18 03:31:00,
2013-04-17 21:36:00,16.3,0.5,31.50,WNW,293,5.0,8.0,49,0.00,,,0.00,meteohub,2013-04-18 03:36:00,
2013-04-17 21:42:00,16.2,0.3,31.50,North,0,3.0,6.0,49,0.00,,,0.00,meteohub,2013-04-18 03:42:00,
2013-04-17 21:47:00,16.2,0.0,31.51,SE,135,3.0,7.0,48,0.00,,,0.00,meteohub,2013-04-18 03:47:00,
2013-04-17 21:52:00,16.0,-0.2,31.51,South,180,3.0,7.0,48,0.00,,,0.00,meteohub,2013-04-18 03:52:00,
2013-04-17 21:57:00,16.0,-0.2,31.51,SE,135,2.0,7.0,48,0.00,,,0.00,meteohub,2013-04-18 03:57:00,
2013-04-17 22:01:00,16.0,-0.2,31.51,West,270,4.0,6.0,48,0.00,,,0.00,meteohub,2013-04-18 04:01:00,
2013-04-17 22:02:00,16.0,-0.2,31.51,West,270,4.0,6.0,48,0.00,,,0.00,meteohub,2013-04-18 04:02:00,
2013-04-17 22:03:00,16.0,-0.2,31.51,West,270,4.0,6.0,48,0.00,,,0.00,meteohub,2013-04-18 04:03:00,
2013-04-17 22:07:00,16.0,-0.2,31.52,West,270,4.0,6.0,48,0.00,,,0.00,meteohub,2013-04-18 04:07:00,
2013-04-17 22:13:00,15.8,-0.4,31.52,WNW,293,4.0,6.0,48,0.00,,,0.00,meteohub,2013-04-18 04:13:00,
2013-04-17 22:19:00,15.6,0.3,31.52,North,0,2.0,5.0,50,0.00,,,0.00,meteohub,2013-04-18 04:19:00,
2013-04-17 22:24:00,15.4,0.1,31.52,North,0,4.0,5.0,50,0.00,,,0.00,meteohub,2013-04-18 04:24:00,
2013-04-17 22:30:00,15.3,0.0,31.52,NE,45,4.0,5.0,50,0.00,,,0.00,meteohub,2013-04-18 04:30:00,
2013-04-17 22:35:00,15.1,0.1,31.52,South,180,3.0,6.0,51,0.00,,,0.00,meteohub,2013-04-18 04:35:00,
2013-04-17 22:40:00,14.9,-0.4,31.52,East,90,4.0,6.0,50,0.00,,,0.00,meteohub,2013-04-18 04:40:00,
2013-04-17 22:46:00,14.9,-0.4,31.52,North,0,8.0,8.0,50,0.00,,,0.00,meteohub,2013-04-18 04:46:00,
2013-04-17 22:51:00,14.7,-0.6,31.52,NE,45,6.0,8.0,50,0.00,,,0.00,meteohub,2013-04-18 04:51:00,
2013-04-17 22:57:00,14.5,-0.8,31.52,North,0,4.0,8.0,50,0.00,,,0.00,meteohub,2013-04-18 04:57:00,
2013-04-17 23:02:00,14.4,-0.9,31.52,NNE,23,6.0,8.0,50,0.00,,,0.00,meteohub,2013-04-18 05:02:00,
2013-04-17 23:07:00,14.2,0.1,31.52,West,270,4.0,8.0,53,0.00,,,0.00,meteohub,2013-04-18 05:07:00,
2013-04-17 23:12:00,14.0,0.0,31.52,West,270,2.0,7.0,53,0.00,,,0.00,meteohub,2013-04-18 05:12:00,
2013-04-17 23:17:00,13.8,0.7,31.52,SW,225,2.0,7.0,55,0.00,,,0.00,meteohub,2013-04-18 05:17:00,
2013-04-17 23:22:00,13.6,0.9,31.52,NE,45,2.0,7.0,56,0.00,,,0.00,meteohub,2013-04-18 05:22:00,
2013-04-17 23:27:00,13.6,1.2,31.53,East,90,2.0,7.0,57,0.00,,,0.00,meteohub,2013-04-18 05:27:00,
2013-04-17 23:33:00,13.5,0.7,31.52,NE,45,6.0,6.0,56,0.00,,,0.00,meteohub,2013-04-18 05:33:00,
2013-04-17 23:38:00,13.5,0.7,31.53,NW,315,2.0,6.0,56,0.00,,,0.00,meteohub,2013-04-18 05:38:00,
2013-04-17 23:44:00,13.5,0.3,31.53,WSW,248,1.0,6.0,55,0.00,,,0.00,meteohub,2013-04-18 05:44:00,
2013-04-17 23:50:00,13.5,0.7,31.53,NE,45,6.0,6.0,56,0.00,,,0.00,meteohub,2013-04-18 05:50:00,
2013-04-17 23:56:00,13.3,0.5,31.53,North,0,1.0,6.0,56,0.00,,,0.00,meteohub,2013-04-18 05:56:00,